| time (UTC) | temp C | wind direction | speed KPH | gust KPH | rain 1hr cm | rain 24hr cm | rain mn cm | humidity % | barometer mb |
| 20260507100055 | 12 | 342 | 8.0 | 16.1 | 0.00 | 0.00 | 0.00 | 33 | 1015.3 |
| 20260507095542 | 12 | 214 | 8.0 | 16.1 | 0.00 | 0.00 | 0.00 | 32 | 1015.3 |
| 20260507095042 | 13 | 257 | 4.8 | 9.7 | 0.00 | 0.00 | 0.00 | 35 | 1015.3 |
| 20260507094547 | 13 | 263 | 3.2 | 8.0 | 0.00 | 0.00 | 0.00 | 35 | 1015.2 |
| 20260507094044 | 13 | 246 | 3.2 | 8.0 | 0.00 | 0.00 | 0.00 | 33 | 1015.3 |
| 20260507093539 | 12 | 308 | 1.6 | 6.4 | 0.00 | 0.00 | 0.00 | 33 | 1015.3 |
| 20260507093050 | 12 | 261 | 3.2 | 16.1 | 0.00 | 0.00 | 0.00 | 33 | 1015.3 |
| 20260507092539 | 12 | 12 | 4.8 | 16.1 | 0.00 | 0.00 | 0.00 | 33 | 1015.3 |
| 20260507092044 | 12 | 321 | 8.0 | 16.1 | 0.00 | 0.00 | 0.00 | 34 | 1015.3 |
| 20260507091550 | 12 | 352 | 4.8 | 12.9 | 0.00 | 0.00 | 0.00 | 35 | 1015.4 |
| 20260507091041 | 12 | 333 | 1.6 | 6.4 | 0.00 | 0.00 | 0.00 | 32 | 1015.4 |
| 20260507090539 | 12 | 90 | 1.6 | 9.7 | 0.00 | 0.00 | 0.00 | 34 | 1015.3 |
| 20260507090046 | 12 | 184 | 3.2 | 12.9 | 0.00 | 0.00 | 0.00 | 36 | 1015.4 |
| 20260507085540 | 12 | 167 | 6.4 | 12.9 | 0.00 | 0.00 | 0.00 | 35 | 1015.5 |
| 20260507085039 | 12 | 225 | 6.4 | 11.3 | 0.00 | 0.00 | 0.00 | 38 | 1015.5 |
| 20260507084554 | 11 | 0 | 3.2 | 12.9 | 0.00 | 0.00 | 0.00 | 34 | 1015.4 |
| 20260507084039 | 11 | 130 | 1.6 | 14.5 | 0.00 | 0.00 | 0.00 | 35 | 1015.5 |
| 20260507083540 | 12 | 286 | 6.4 | 14.5 | 0.00 | 0.00 | 0.00 | 40 | 1015.6 |
| 20260507083048 | 11 | 255 | 6.4 | 14.5 | 0.00 | 0.00 | 0.00 | 37 | 1015.5 |
| 20260507082538 | 11 | 55 | 4.8 | 11.3 | 0.00 | 0.00 | 0.00 | 35 | 1015.5 |
| 20260507082036 | 11 | 291 | 4.8 | 11.3 | 0.00 | 0.00 | 0.00 | 36 | 1015.5 |
| 20260507081549 | 11 | 339 | 3.2 | 9.7 | 0.00 | 0.00 | 0.00 | 34 | 1015.6 |
| 20260507081036 | 11 | 286 | 4.8 | 14.5 | 0.00 | 0.00 | 0.00 | 36 | 1015.6 |
| 20260507080540 | 11 | 253 | 8.0 | 14.5 | 0.00 | 0.00 | 0.00 | 36 | 1015.6 |
| 20260507080052 | 11 | 235 | 1.6 | 6.4 | 0.00 | 0.00 | 0.00 | 35 | 1015.5 |
| 20260507075540 | 11 | 78 | 3.2 | 6.4 | 0.00 | 0.00 | 0.00 | 35 | 1015.5 |
| 20260507075039 | 10 | 0 | 0.0 | 9.7 | 0.00 | 0.00 | 0.00 | 35 | 1015.5 |
| 20260507074552 | 10 | 273 | 4.8 | 9.7 | 0.00 | 0.00 | 0.00 | 37 | 1015.6 |
| 20260507074039 | 10 | 302 | 3.2 | 9.7 | 0.00 | 0.00 | 0.00 | 35 | 1015.6 |
| 20260507073539 | 11 | 267 | 1.6 | 8.0 | 0.00 | 0.00 | 0.00 | 39 | 1015.6 |
| 20260507073048 | 10 | 140 | 1.6 | 8.0 | 0.00 | 0.00 | 0.00 | 38 | 1015.6 |
| 20260507072539 | 10 | 352 | 3.2 | 8.0 | 0.00 | 0.00 | 0.00 | 37 | 1015.7 |
| 20260507072038 | 10 | 0 | 1.6 | 8.0 | 0.00 | 0.00 | 0.00 | 36 | 1015.7 |
| 20260507071548 | 10 | 95 | 4.8 | 11.3 | 0.00 | 0.00 | 0.00 | 38 | 1015.7 |
| 20260507071039 | 10 | 59 | 4.8 | 12.9 | 0.00 | 0.00 | 0.00 | 38 | 1015.6 |
| 20260507070539 | 10 | 92 | 3.2 | 12.9 | 0.00 | 0.00 | 0.00 | 37 | 1015.6 |
| 20260507065538 | 10 | 190 | 1.6 | 11.3 | 0.00 | 0.00 | 0.00 | 37 | 1015.6 |
| 20260507065038 | 10 | 169 | 3.2 | 11.3 | 0.00 | 0.00 | 0.00 | 39 | 1015.6 |
| 20260507064547 | 9 | 101 | 3.2 | 11.3 | 0.00 | 0.00 | 0.00 | 40 | 1015.6 |
| 20260507064037 | 9 | 13 | 3.2 | 9.7 | 0.00 | 0.00 | 0.00 | 40 | 1015.6 |
| 20260507063536 | 9 | 38 | 3.2 | 12.9 | 0.00 | 0.00 | 0.00 | 40 | 1015.6 |
| 20260507063051 | 8 | 38 | 4.8 | 16.1 | 0.00 | 0.00 | 0.00 | 41 | 1015.7 |
| 20260507062536 | 8 | 83 | 6.4 | 16.1 | 0.00 | 0.00 | 0.00 | 39 | 1015.7 |
| 20260507062037 | 8 | 103 | 8.0 | 14.5 | 0.00 | 0.00 | 0.00 | 40 | 1015.6 |
| 20260507061555 | 8 | 96 | 3.2 | 11.3 | 0.00 | 0.00 | 0.00 | 45 | 1015.6 |
| 20260507061038 | 8 | 90 | 3.2 | 8.0 | 0.00 | 0.00 | 0.00 | 48 | 1015.6 |
| 20260507060539 | 7 | 5 | 4.8 | 9.7 | 0.00 | 0.00 | 0.00 | 48 | 1015.7 |
| 20260507060046 | 7 | 349 | 4.8 | 11.3 | 0.00 | 0.00 | 0.00 | 47 | 1015.6 |
| 20260507055537 | 7 | 45 | 4.8 | 11.3 | 0.00 | 0.00 | 0.00 | 50 | 1015.5 |
| 20260507055038 | 7 | 22 | 3.2 | 8.0 | 0.00 | 0.00 | 0.00 | 48 | 1015.5 |
| 20260507054546 | 7 | 48 | 3.2 | 6.4 | 0.00 | 0.00 | 0.00 | 49 | 1015.5 |
| 20260507054036 | 7 | 80 | 3.2 | 6.4 | 0.00 | 0.00 | 0.00 | 50 | 1015.5 |
| 20260507053537 | 7 | 53 | 1.6 | 6.4 | 0.00 | 0.00 | 0.00 | 50 | 1015.5 |
| 20260507053049 | 6 | 69 | 3.2 | 6.4 | 0.00 | 0.00 | 0.00 | 51 | 1015.5 |
| 20260507052537 | 6 | 53 | 1.6 | 6.4 | 0.00 | 0.00 | 0.00 | 52 | 1015.5 |
| 20260507052037 | 5 | 58 | 1.6 | 6.4 | 0.00 | 0.00 | 0.00 | 54 | 1015.5 |
| 20260507051545 | 5 | 46 | 1.6 | 6.4 | 0.00 | 0.00 | 0.00 | 56 | 1015.4 |
| 20260507051038 | 5 | 75 | 1.6 | 6.4 | 0.00 | 0.00 | 0.00 | 57 | 1015.5 |
| 20260507050538 | 4 | 0 | 1.6 | 6.4 | 0.00 | 0.00 | 0.00 | 59 | 1015.5 |
| 20260507045537 | 3 | 51 | 1.6 | 4.8 | 0.00 | 0.00 | 0.00 | 61 | 1015.6 |
| 20260507045036 | 3 | 44 | 0.0 | 3.2 | 0.00 | 0.00 | 0.00 | 63 | 1015.6 |
| 20260507044552 | 2 | 44 | 1.6 | 4.8 | 0.00 | 0.00 | 0.00 | 64 | 1015.5 |
| 20260507044041 | 2 | 78 | 1.6 | 4.8 | 0.00 | 0.00 | 0.00 | 66 | 1015.6 |
| 20260507043537 | 2 | 55 | 1.6 | 6.4 | 0.00 | 0.00 | 0.00 | 69 | 1015.5 |
| 20260507043047 | 2 | 32 | 1.6 | 6.4 | 0.00 | 0.00 | 0.00 | 69 | 1015.6 |
| 20260507042540 | 1 | 28 | 3.2 | 6.4 | 0.00 | 0.00 | 0.00 | 72 | 1015.6 |
| 20260507042039 | 0 | 34 | 3.2 | 6.4 | 0.00 | 0.00 | 0.00 | 75 | 1015.6 |
| 20260507041552 | 0 | 0 | 0.0 | 4.8 | 0.00 | 0.00 | 0.00 | 79 | 1015.6 |
| 20260507041037 | 0 | 0 | 1.6 | 4.8 | 0.00 | 0.00 | 0.00 | 79 | 1015.6 |
| 20260507040537 | 0 | 41 | 1.6 | 4.8 | 0.00 | 0.00 | 0.00 | 80 | 1015.6 |
| 20260507040050 | -1 | 55 | 1.6 | 4.8 | 0.00 | 0.00 | 0.00 | 82 | 1015.5 |
| 20260507035536 | -1 | 0 | 1.6 | 4.8 | 0.00 | 0.00 | 0.00 | 82 | 1015.5 |
| 20260507035038 | -1 | 65 | 3.2 | 4.8 | 0.00 | 0.00 | 0.00 | 83 | 1015.6 |
| 20260507034544 | -2 | 67 | 1.6 | 4.8 | 0.00 | 0.00 | 0.00 | 83 | 1015.5 |
| 20260507034035 | -2 | 55 | 1.6 | 3.2 | 0.00 | 0.00 | 0.00 | 84 | 1015.5 |
| 20260507033537 | -2 | 49 | 1.6 | 3.2 | 0.00 | 0.00 | 0.00 | 84 | 1015.5 |
| 20260507033048 | -3 | 38 | 1.6 | 3.2 | 0.00 | 0.00 | 0.00 | 84 | 1015.5 |
| 20260507032537 | -3 | 44 | 1.6 | 3.2 | 0.00 | 0.00 | 0.00 | 85 | 1015.5 |
| 20260507032037 | -3 | 42 | 0.0 | 4.8 | 0.00 | 0.00 | 0.00 | 85 | 1015.4 |
| 20260507031553 | -3 | 42 | 0.0 | 4.8 | 0.00 | 0.00 | 0.00 | 86 | 1015.4 |
| 20260507031041 | -4 | 42 | 1.6 | 4.8 | 0.00 | 0.00 | 0.00 | 86 | 1015.4 |
| 20260507030538 | -5 | 43 | 1.6 | 4.8 | 0.00 | 0.00 | 0.00 | 86 | 1015.4 |
| 20260507030046 | -5 | 0 | 0.0 | 3.2 | 0.00 | 0.00 | 0.00 | 86 | 1015.4 |
| 20260507025536 | -5 | 0 | 0.0 | 1.6 | 0.00 | 0.00 | 0.00 | 86 | 1015.4 |
| 20260507025039 | -5 | 0 | 0.0 | 3.2 | 0.00 | 0.00 | 0.00 | 85 | 1015.5 |
| 20260507024547 | -5 | 0 | 0.0 | 4.8 | 0.00 | 0.00 | 0.00 | 85 | 1015.4 |
| 20260507024037 | -5 | 0 | 1.6 | 6.4 | 0.00 | 0.00 | 0.00 | 86 | 1015.5 |
| 20260507023538 | -5 | 40 | 3.2 | 6.4 | 0.00 | 0.00 | 0.00 | 86 | 1015.4 |
| 20260507023043 | -5 | 57 | 3.2 | 6.4 | 0.00 | 0.00 | 0.00 | 85 | 1015.4 |
| 20260507022538 | -5 | 57 | 3.2 | 6.4 | 0.00 | 0.00 | 0.00 | 85 | 1015.5 |
| 20260507022038 | -5 | 44 | 3.2 | 6.4 | 0.00 | 0.00 | 0.00 | 85 | 1015.4 |
| 20260507021556 | -5 | 47 | 1.6 | 4.8 | 0.00 | 0.00 | 0.00 | 85 | 1015.5 |
| 20260507021037 | -5 | 47 | 1.6 | 4.8 | 0.00 | 0.00 | 0.00 | 85 | 1015.5 |
| 20260507020537 | -5 | 47 | 1.6 | 4.8 | 0.00 | 0.00 | 0.00 | 84 | 1015.4 |
| 20260507020049 | -5 | 47 | 1.6 | 4.8 | 0.00 | 0.00 | 0.00 | 84 | 1015.4 |
| 20260507015540 | -5 | 47 | 0.0 | 3.2 | 0.00 | 0.00 | 0.00 | 84 | 1015.5 |
| 20260507015034 | -5 | 0 | 0.0 | 3.2 | 0.00 | 0.00 | 0.00 | 84 | 1015.4 |
| 20260507014548 | -5 | 0 | 0.0 | 3.2 | 0.00 | 0.00 | 0.00 | 84 | 1015.3 |
| 20260507014037 | -5 | 37 | 0.0 | 3.2 | 0.00 | 0.00 | 0.00 | 84 | 1015.3 |
| 20260507013536 | -5 | 0 | 0.0 | 1.6 | 0.00 | 0.00 | 0.00 | 84 | 1015.3 |
| 20260507013046 | -5 | 0 | 0.0 | 3.2 | 0.00 | 0.00 | 0.00 | 84 | 1015.3 |
| 20260507012539 | -5 | 0 | 0.0 | 3.2 | 0.00 | 0.00 | 0.00 | 84 | 1015.3 |
| 20260507012038 | -5 | 36 | 1.6 | 4.8 | 0.00 | 0.00 | 0.00 | 84 | 1015.3 |
| 20260507011555 | -5 | 0 | 1.6 | 4.8 | 0.00 | 0.00 | 0.00 | 84 | 1015.3 |
| 20260507011038 | -5 | 32 | 3.2 | 4.8 | 0.00 | 0.00 | 0.00 | 84 | 1015.2 |
| 20260507010537 | -5 | 57 | 0.0 | 4.8 | 0.00 | 0.00 | 0.00 | 84 | 1015.1 |
| 20260507010053 | -5 | 57 | 1.6 | 4.8 | 0.00 | 0.00 | 0.00 | 83 | 1015.0 |
| 20260507005538 | -5 | 45 | 1.6 | 6.4 | 0.00 | 0.00 | 0.00 | 84 | 1015.1 |
| 20260507005041 | -5 | 28 | 3.2 | 6.4 | 0.00 | 0.00 | 0.00 | 84 | 1015.0 |
| 20260507004542 | -5 | 63 | 3.2 | 6.4 | 0.00 | 0.00 | 0.00 | 83 | 1014.9 |
| 20260507004038 | -5 | 77 | 3.2 | 6.4 | 0.00 | 0.00 | 0.00 | 83 | 1015.0 |
| 20260507003537 | -5 | 56 | 3.2 | 4.8 | 0.00 | 0.00 | 0.00 | 83 | 1014.9 |
| 20260507003047 | -5 | 65 | 1.6 | 4.8 | 0.00 | 0.00 | 0.00 | 83 | 1014.9 |
| 20260507002537 | -4 | 0 | 0.0 | 6.4 | 0.00 | 0.00 | 0.00 | 83 | 1014.9 |
| 20260507002037 | -4 | 42 | 3.2 | 6.4 | 0.00 | 0.00 | 0.00 | 83 | 1014.9 |
| 20260507001544 | -5 | 38 | 3.2 | 6.4 | 0.00 | 0.00 | 0.00 | 83 | 1014.8 |
| 20260507001036 | -5 | 55 | 0.0 | 8.0 | 0.00 | 0.00 | 0.00 | 83 | 1014.7 |
| 20260507000539 | -5 | 46 | 3.2 | 8.0 | 0.00 | 0.00 | 0.00 | 82 | 1014.7 |
| 20260507000048 | -5 | 40 | 3.2 | 8.0 | 0.00 | 0.00 | 0.00 | 82 | 1014.7 |
| 20260506235539 | -4 | 74 | 1.6 | 6.4 | 0.00 | 0.00 | 0.00 | 81 | 1014.6 |
| 20260506235035 | -4 | 0 | 0.0 | 6.4 | 0.00 | 0.00 | 0.00 | 82 | 1014.6 |
| 20260506234615 | -4 | 0 | 1.6 | 4.8 | 0.00 | 0.00 | 0.00 | 82 | 1014.6 |
| 20260506234038 | -4 | 0 | 1.6 | 6.4 | 0.00 | 0.00 | 0.00 | 81 | 1014.7 |
| 20260506233538 | -4 | 51 | 3.2 | 6.4 | 0.00 | 0.00 | 0.00 | 81 | 1014.6 |
| 20260506233045 | -4 | 42 | 3.2 | 6.4 | 0.00 | 0.00 | 0.00 | 81 | 1014.6 |
| 20260506232537 | -3 | 58 | 0.0 | 3.2 | 0.00 | 0.00 | 0.00 | 82 | 1014.6 |
| 20260506232038 | -3 | 58 | 0.0 | 3.2 | 0.00 | 0.00 | 0.00 | 82 | 1014.7 |
| 20260506231554 | -3 | 58 | 1.6 | 4.8 | 0.00 | 0.00 | 0.00 | 82 | 1014.6 |
| 20260506231037 | -3 | 63 | 1.6 | 4.8 | 0.00 | 0.00 | 0.00 | 81 | 1014.6 |
| 20260506230537 | -3 | 37 | 0.0 | 3.2 | 0.00 | 0.00 | 0.00 | 80 | 1014.5 |
| 20260506230057 | -3 | 0 | 0.0 | 8.0 | 0.00 | 0.00 | 0.00 | 81 | 1014.5 |
| 20260506225538 | -3 | 0 | 1.6 | 8.0 | 0.00 | 0.00 | 0.00 | 81 | 1014.5 |
| 20260506225035 | -3 | 40 | 4.8 | 8.0 | 0.00 | 0.00 | 0.00 | 80 | 1014.5 |
| 20260506224547 | -3 | 65 | 0.0 | 4.8 | 0.00 | 0.00 | 0.00 | 80 | 1014.6 |
| 20260506224037 | -3 | 0 | 0.0 | 4.8 | 0.00 | 0.00 | 0.00 | 80 | 1014.6 |
| 20260506223537 | -3 | 67 | 3.2 | 4.8 | 0.00 | 0.00 | 0.00 | 80 | 1014.6 |
| 20260506223057 | -3 | 67 | 1.6 | 3.2 | 0.00 | 0.00 | 0.00 | 80 | 1014.6 |
| 20260506222538 | -3 | 67 | 0.0 | 3.2 | 0.00 | 0.00 | 0.00 | 81 | 1014.5 |
| 20260506222041 | -3 | 67 | 0.0 | 4.8 | 0.00 | 0.00 | 0.00 | 80 | 1014.5 |
| 20260506221555 | -3 | 67 | 1.6 | 4.8 | 0.00 | 0.00 | 0.00 | 78 | 1014.4 |
| 20260506221039 | -2 | 79 | 1.6 | 6.4 | 0.00 | 0.00 | 0.00 | 79 | 1014.4 |
| 20260506220537 | -2 | 355 | 1.6 | 6.4 | 0.00 | 0.00 | 0.00 | 80 | 1014.4 |
| 20260506220047 | -2 | 57 | 0.0 | 3.2 | 0.00 | 0.00 | 0.00 | 80 | 1014.4 |
| 20260506215539 | -2 | 0 | 0.0 | 4.8 | 0.00 | 0.00 | 0.00 | 80 | 1014.4 |
| 20260506215037 | -2 | 0 | 0.0 | 4.8 | 0.00 | 0.00 | 0.00 | 80 | 1014.4 |
| 20260506214544 | -2 | 57 | 1.6 | 4.8 | 0.00 | 0.00 | 0.00 | 78 | 1014.4 |
| 20260506214037 | -2 | 62 | 1.6 | 4.8 | 0.00 | 0.00 | 0.00 | 77 | 1014.3 |
| 20260506213539 | -2 | 59 | 1.6 | 4.8 | 0.00 | 0.00 | 0.00 | 76 | 1014.3 |
| 20260506213048 | -2 | 57 | 0.0 | 3.2 | 0.00 | 0.00 | 0.00 | 76 | 1014.2 |
| 20260506212538 | -1 | 0 | 0.0 | 3.2 | 0.00 | 0.00 | 0.00 | 76 | 1014.2 |
| 20260506212035 | -1 | 0 | 0.0 | 3.2 | 0.00 | 0.00 | 0.00 | 77 | 1014.1 |
| 20260506211546 | -1 | 57 | 0.0 | 4.8 | 0.00 | 0.00 | 0.00 | 77 | 1014.2 |
| 20260506211038 | -1 | 57 | 1.6 | 4.8 | 0.00 | 0.00 | 0.00 | 77 | 1014.2 |
| 20260506210538 | -1 | 57 | 0.0 | 3.2 | 0.00 | 0.00 | 0.00 | 76 | 1014.1 |
| 20260506210047 | -1 | 0 | 0.0 | 3.2 | 0.00 | 0.00 | 0.00 | 76 | 1014.2 |
| 20260506205537 | -1 | 57 | 1.6 | 3.2 | 0.00 | 0.00 | 0.00 | 75 | 1014.1 |
| 20260506205037 | -1 | 57 | 0.0 | 4.8 | 0.00 | 0.00 | 0.00 | 73 | 1014.1 |
| 20260506204554 | -1 | 57 | 0.0 | 4.8 | 0.00 | 0.00 | 0.00 | 75 | 1014.1 |
| 20260506204040 | -1 | 57 | 1.6 | 4.8 | 0.00 | 0.00 | 0.00 | 73 | 1014.1 |
| 20260506203537 | -1 | 52 | 3.2 | 4.8 | 0.00 | 0.00 | 0.00 | 72 | 1014.0 |
| 20260506203050 | 0 | 72 | 1.6 | 4.8 | 0.00 | 0.00 | 0.00 | 67 | 1014.1 |
| 20260506202538 | 0 | 0 | 0.0 | 4.8 | 0.00 | 0.00 | 0.00 | 67 | 1014.0 |
| 20260506202038 | 0 | 42 | 1.6 | 4.8 | 0.00 | 0.00 | 0.00 | 66 | 1014.2 |
| 20260506201543 | 0 | 42 | 1.6 | 4.8 | 0.00 | 0.00 | 0.00 | 66 | 1014.2 |
| 20260506201040 | 0 | 46 | 1.6 | 6.4 | 0.00 | 0.00 | 0.00 | 65 | 1014.2 |
| 20260506200538 | 0 | 46 | 3.2 | 6.4 | 0.00 | 0.00 | 0.00 | 66 | 1014.2 |
| 20260506200106 | 0 | 48 | 1.6 | 3.2 | 0.00 | 0.00 | 0.00 | 63 | 1014.3 |
| 20260506195538 | 1 | 0 | 0.0 | 3.2 | 0.00 | 0.00 | 0.00 | 62 | 1014.3 |
| 20260506195039 | 1 | 36 | 1.6 | 4.8 | 0.00 | 0.00 | 0.00 | 60 | 1014.2 |
| 20260506194550 | 1 | 36 | 1.6 | 4.8 | 0.00 | 0.00 | 0.00 | 60 | 1014.2 |
| 20260506194037 | 1 | 36 | 0.0 | 3.2 | 0.00 | 0.00 | 0.00 | 59 | 1014.2 |
| 20260506193541 | 1 | 36 | 0.0 | 4.8 | 0.00 | 0.00 | 0.00 | 60 | 1014.3 |
| 20260506193048 | 2 | 36 | 1.6 | 4.8 | 0.00 | 0.00 | 0.00 | 56 | 1014.2 |
| 20260506192537 | 2 | 36 | 3.2 | 4.8 | 0.00 | 0.00 | 0.00 | 56 | 1014.2 |
| 20260506192041 | 2 | 360 | 1.6 | 3.2 | 0.00 | 0.00 | 0.00 | 54 | 1014.1 |
| 20260506191552 | 2 | 330 | 0.0 | 1.6 | 0.00 | 0.00 | 0.00 | 53 | 1014.1 |
| 20260506191036 | 3 | 0 | 0.0 | 3.2 | 0.00 | 0.00 | 0.00 | 51 | 1014.1 |
| 20260506190538 | 3 | 0 | 0.0 | 3.2 | 0.00 | 0.00 | 0.00 | 49 | 1014.0 |
| 20260506190050 | 4 | 330 | 1.6 | 3.2 | 0.00 | 0.00 | 0.00 | 47 | 1014.0 |
| 20260506185538 | 5 | 330 | 1.6 | 3.2 | 0.00 | 0.00 | 0.00 | 53 | 1013.9 |
| 20260506185041 | 5 | 330 | 1.6 | 3.2 | 0.00 | 0.00 | 0.00 | 45 | 1013.9 |
| 20260506184557 | 5 | 330 | 1.6 | 4.8 | 0.00 | 0.00 | 0.00 | 43 | 1013.9 |
| 20260506184037 | 5 | 320 | 1.6 | 4.8 | 0.00 | 0.00 | 0.00 | 43 | 1013.8 |
| 20260506183537 | 6 | 320 | 1.6 | 6.4 | 0.00 | 0.00 | 0.00 | 41 | 1013.8 |
| 20260506183101 | 6 | 319 | 3.2 | 6.4 | 0.00 | 0.00 | 0.00 | 42 | 1013.8 |
| 20260506182537 | 6 | 316 | 3.2 | 6.4 | 0.00 | 0.00 | 0.00 | 42 | 1013.8 |
| 20260506182038 | 7 | 316 | 3.2 | 8.0 | 0.00 | 0.00 | 0.00 | 39 | 1013.8 |
| 20260506181559 | 7 | 302 | 4.8 | 8.0 | 0.00 | 0.00 | 0.00 | 38 | 1013.8 |
| 20260506181038 | 7 | 313 | 3.2 | 11.3 | 0.00 | 0.00 | 0.00 | 39 | 1013.7 |
| 20260506180539 | 7 | 312 | 4.8 | 11.3 | 0.00 | 0.00 | 0.00 | 38 | 1013.8 |
| 20260506180048 | 7 | 309 | 4.8 | 12.9 | 0.00 | 0.00 | 0.00 | 37 | 1013.7 |
| 20260506175542 | 7 | 315 | 4.8 | 12.9 | 0.00 | 0.00 | 0.00 | 36 | 1013.8 |
| 20260506175039 | 7 | 295 | 4.8 | 12.9 | 0.00 | 0.00 | 0.00 | 37 | 1013.7 |
| 20260506174545 | 8 | 306 | 6.4 | 16.1 | 0.00 | 0.00 | 0.00 | 36 | 1013.7 |
| 20260506174037 | 8 | 301 | 6.4 | 16.1 | 0.00 | 0.00 | 0.00 | 36 | 1013.6 |
| 20260506173538 | 8 | 297 | 4.8 | 17.7 | 0.00 | 0.00 | 0.00 | 36 | 1013.7 |
| 20260506173101 | 8 | 280 | 6.4 | 17.7 | 0.00 | 0.00 | 0.00 | 36 | 1013.6 |
| 20260506172537 | 8 | 313 | 9.7 | 17.7 | 0.00 | 0.00 | 0.00 | 36 | 1013.6 |
| 20260506172036 | 8 | 298 | 4.8 | 12.9 | 0.00 | 0.00 | 0.00 | 38 | 1013.6 |
| 20260506171546 | 8 | 281 | 4.8 | 17.7 | 0.00 | 0.00 | 0.00 | 37 | 1013.6 |
| 20260506171038 | 8 | 304 | 11.3 | 19.3 | 0.00 | 0.00 | 0.00 | 36 | 1013.5 |
| 20260506170538 | 8 | 272 | 9.7 | 19.3 | 0.00 | 0.00 | 0.00 | 35 | 1013.6 |
| 20260506170052 | 9 | 304 | 12.9 | 19.3 | 0.00 | 0.00 | 0.00 | 34 | 1013.6 |
| 20260506165539 | 9 | 339 | 6.4 | 14.5 | 0.00 | 0.00 | 0.00 | 34 | 1013.5 |
| 20260506165038 | 9 | 273 | 4.8 | 14.5 | 0.00 | 0.00 | 0.00 | 35 | 1013.5 |
| 20260506164550 | 9 | 279 | 8.0 | 14.5 | 0.00 | 0.00 | 0.00 | 36 | 1013.5 |
| 20260506164037 | 10 | 269 | 8.0 | 16.1 | 0.00 | 0.00 | 0.00 | 35 | 1013.4 |
| 20260506163537 | 10 | 296 | 4.8 | 16.1 | 0.00 | 0.00 | 0.00 | 36 | 1013.5 |
| 20260506163054 | 10 | 316 | 9.7 | 16.1 | 0.00 | 0.00 | 0.00 | 34 | 1013.4 |
| 20260506162537 | 10 | 306 | 8.0 | 16.1 | 0.00 | 0.00 | 0.00 | 33 | 1013.4 |
| 20260506162037 | 10 | 265 | 6.4 | 16.1 | 0.00 | 0.00 | 0.00 | 35 | 1013.4 |
| 20260506161556 | 10 | 318 | 6.4 | 16.1 | 0.00 | 0.00 | 0.00 | 33 | 1013.3 |
| 20260506161037 | 10 | 281 | 8.0 | 16.1 | 0.00 | 0.00 | 0.00 | 33 | 1013.3 |
| 20260506160537 | 10 | 343 | 4.8 | 14.5 | 0.00 | 0.00 | 0.00 | 33 | 1013.4 |
| 20260506160046 | 10 | 313 | 4.8 | 17.7 | 0.00 | 0.00 | 0.00 | 34 | 1013.3 |
| 20260506155537 | 10 | 284 | 9.7 | 19.3 | 0.00 | 0.00 | 0.00 | 33 | 1013.4 |
| 20260506155037 | 10 | 332 | 9.7 | 19.3 | 0.00 | 0.00 | 0.00 | 32 | 1013.4 |
| 20260506154545 | 10 | 306 | 4.8 | 14.5 | 0.00 | 0.00 | 0.00 | 32 | 1013.3 |
| 20260506154041 | 10 | 340 | 3.2 | 14.5 | 0.00 | 0.00 | 0.00 | 32 | 1013.3 |
| 20260506153539 | 11 | 0 | 6.4 | 20.9 | 0.00 | 0.00 | 0.00 | 34 | 1013.3 |
| 20260506153046 | 10 | 314 | 11.3 | 20.9 | 0.00 | 0.00 | 0.00 | 34 | 1013.4 |
| 20260506152539 | 10 | 323 | 11.3 | 19.3 | 0.00 | 0.00 | 0.00 | 33 | 1013.4 |
| 20260506152038 | 10 | 278 | 3.2 | 16.1 | 0.00 | 0.00 | 0.00 | 32 | 1013.4 |
| 20260506151601 | 10 | 322 | 9.7 | 16.1 | 0.00 | 0.00 | 0.00 | 32 | 1013.4 |
| 20260506151037 | 10 | 314 | 11.3 | 17.7 | 0.00 | 0.00 | 0.00 | 32 | 1013.4 |
| 20260506150538 | 10 | 304 | 4.8 | 20.9 | 0.00 | 0.00 | 0.00 | 35 | 1013.4 |
| 20260506150047 | 10 | 294 | 8.0 | 20.9 | 0.00 | 0.00 | 0.00 | 33 | 1013.4 |
| 20260506145538 | 11 | 308 | 9.7 | 17.7 | 0.00 | 0.00 | 0.00 | 33 | 1013.3 |
| 20260506145037 | 11 | 302 | 9.7 | 16.1 | 0.00 | 0.00 | 0.00 | 34 | 1013.4 |
| 20260506144544 | 11 | 277 | 8.0 | 16.1 | 0.00 | 0.00 | 0.00 | 32 | 1013.4 |
| 20260506144041 | 11 | 282 | 8.0 | 17.7 | 0.00 | 0.00 | 0.00 | 33 | 1013.4 |
| 20260506143537 | 11 | 292 | 8.0 | 20.9 | 0.00 | 0.00 | 0.00 | 33 | 1013.5 |
| 20260506143048 | 11 | 277 | 12.9 | 20.9 | 0.00 | 0.00 | 0.00 | 33 | 1013.5 |
| 20260506142538 | 11 | 20 | 6.4 | 17.7 | 0.00 | 0.00 | 0.00 | 32 | 1013.5 |
| 20260506142038 | 11 | 317 | 8.0 | 17.7 | 0.00 | 0.00 | 0.00 | 32 | 1013.5 |
| 20260506141542 | 11 | 253 | 9.7 | 17.7 | 0.00 | 0.00 | 0.00 | 34 | 1013.3 |
| 20260506141038 | 11 | 323 | 9.7 | 17.7 | 0.00 | 0.00 | 0.00 | 32 | 1013.4 |
| 20260506140540 | 11 | 282 | 6.4 | 17.7 | 0.00 | 0.00 | 0.00 | 32 | 1013.4 |
| 20260506140058 | 11 | 333 | 4.8 | 19.3 | 0.00 | 0.00 | 0.00 | 33 | 1013.4 |
| 20260506135536 | 11 | 280 | 9.7 | 22.5 | 0.00 | 0.00 | 0.00 | 34 | 1013.5 |
| 20260506135037 | 11 | 273 | 6.4 | 22.5 | 0.00 | 0.00 | 0.00 | 34 | 1013.4 |
| 20260506134548 | 11 | 229 | 12.9 | 24.1 | 0.00 | 0.00 | 0.00 | 33 | 1013.4 |
| 20260506134038 | 11 | 304 | 9.7 | 24.1 | 0.00 | 0.00 | 0.00 | 35 | 1013.4 |
| 20260506133539 | 11 | 261 | 4.8 | 20.9 | 0.00 | 0.00 | 0.00 | 34 | 1013.5 |
| 20260506133047 | 11 | 313 | 11.3 | 19.3 | 0.00 | 0.00 | 0.00 | 33 | 1013.5 |
| 20260506132537 | 11 | 303 | 11.3 | 27.4 | 0.00 | 0.00 | 0.00 | 35 | 1013.5 |
| 20260506132040 | 11 | 269 | 4.8 | 27.4 | 0.00 | 0.00 | 0.00 | 32 | 1013.4 |
| 20260506131543 | 11 | 309 | 9.7 | 19.3 | 0.00 | 0.00 | 0.00 | 34 | 1013.4 |
| 20260506131039 | 11 | 321 | 3.2 | 20.9 | 0.00 | 0.00 | 0.00 | 37 | 1013.4 |
| 20260506130536 | 11 | 290 | 11.3 | 20.9 | 0.00 | 0.00 | 0.00 | 35 | 1013.4 |
| 20260506130057 | 11 | 285 | 9.7 | 20.9 | 0.00 | 0.00 | 0.00 | 32 | 1013.4 |
| 20260506125538 | 11 | 272 | 12.9 | 19.3 | 0.00 | 0.00 | 0.00 | 35 | 1013.4 |
| 20260506125040 | 11 | 248 | 8.0 | 20.9 | 0.00 | 0.00 | 0.00 | 32 | 1013.4 |
| 20260506124545 | 11 | 287 | 12.9 | 24.1 | 0.00 | 0.00 | 0.00 | 33 | 1013.4 |
| 20260506124038 | 11 | 250 | 8.0 | 24.1 | 0.00 | 0.00 | 0.00 | 37 | 1013.5 |
| 20260506123538 | 11 | 277 | 12.9 | 27.4 | 0.00 | 0.00 | 0.00 | 35 | 1013.4 |
| 20260506123048 | 11 | 315 | 12.9 | 27.4 | 0.00 | 0.00 | 0.00 | 32 | 1013.5 |
| 20260506122537 | 11 | 311 | 11.3 | 27.4 | 0.00 | 0.00 | 0.00 | 33 | 1013.5 |
| 20260506122036 | 11 | 308 | 6.4 | 17.7 | 0.00 | 0.00 | 0.00 | 35 | 1013.5 |
| 20260506121546 | 11 | 347 | 4.8 | 24.1 | 0.00 | 0.00 | 0.00 | 34 | 1013.5 |
| 20260506121039 | 11 | 288 | 9.7 | 24.1 | 0.00 | 0.00 | 0.00 | 36 | 1013.5 |
| 20260506120537 | 11 | 325 | 14.5 | 24.1 | 0.00 | 0.00 | 0.00 | 33 | 1013.5 |
| 20260506120047 | 11 | 277 | 11.3 | 24.1 | 0.00 | 0.00 | 0.00 | 37 | 1013.4 |
| 20260506115539 | 11 | 233 | 8.0 | 20.9 | 0.00 | 0.00 | 0.00 | 35 | 1013.4 |
| 20260506115038 | 11 | 258 | 4.8 | 19.3 | 0.00 | 0.00 | 0.00 | 34 | 1013.4 |
| 20260506114546 | 11 | 307 | 9.7 | 22.5 | 0.00 | 0.00 | 0.00 | 33 | 1013.5 |
| 20260506114038 | 11 | 284 | 14.5 | 22.5 | 0.00 | 0.00 | 0.00 | 34 | 1013.5 |
| 20260506113537 | 11 | 300 | 11.3 | 22.5 | 0.00 | 0.00 | 0.00 | 37 | 1013.4 |
| 20260506113043 | 11 | 277 | 8.0 | 20.9 | 0.00 | 0.00 | 0.00 | 34 | 1013.4 |
| 20260506112539 | 11 | 308 | 6.4 | 27.4 | 0.00 | 0.00 | 0.00 | 34 | 1013.3 |
| 20260506112038 | 11 | 315 | 11.3 | 27.4 | 0.00 | 0.00 | 0.00 | 35 | 1013.4 |
| 20260506111551 | 11 | 314 | 12.9 | 27.4 | 0.00 | 0.00 | 0.00 | 34 | 1013.4 |
| 20260506111038 | 10 | 311 | 8.0 | 27.4 | 0.00 | 0.00 | 0.00 | 34 | 1013.4 |
| 20260506110539 | 11 | 281 | 14.5 | 27.4 | 0.00 | 0.00 | 0.00 | 33 | 1013.4 |
| 20260506110053 | 11 | 281 | 14.5 | 25.7 | 0.00 | 0.00 | 0.00 | 37 | 1013.3 |
| 20260506105538 | 11 | 277 | 14.5 | 25.7 | 0.00 | 0.00 | 0.00 | 35 | 1013.3 |
| 20260506105037 | 11 | 299 | 14.5 | 27.4 | 0.00 | 0.00 | 0.00 | 38 | 1013.2 |
| 20260506104545 | 11 | 284 | 14.5 | 27.4 | 0.00 | 0.00 | 0.00 | 37 | 1013.2 |
| 20260506104037 | 11 | 267 | 16.1 | 27.4 | 0.00 | 0.00 | 0.00 | 37 | 1013.2 |
| 20260506103538 | 10 | 306 | 12.9 | 25.7 | 0.00 | 0.00 | 0.00 | 36 | 1013.2 |
| 20260506103048 | 10 | 305 | 12.9 | 24.1 | 0.00 | 0.00 | 0.00 | 37 | 1013.2 |
| 20260506102539 | 10 | 286 | 11.3 | 19.3 | 0.00 | 0.00 | 0.00 | 39 | 1013.3 |
| 20260506102038 | 10 | 267 | 4.8 | 16.1 | 0.00 | 0.00 | 0.00 | 38 | 1013.2 |
| 20260506101554 | 10 | 15 | 4.8 | 20.9 | 0.00 | 0.00 | 0.00 | 37 | 1013.2 |
| 20260506101039 | 10 | 323 | 9.7 | 22.5 | 0.00 | 0.00 | 0.00 | 39 | 1013.3 |
| 20260506100538 | 10 | 290 | 9.7 | 22.5 | 0.00 | 0.00 | 0.00 | 41 | 1013.2 |